Hourly Weather Kazanka

Today, 28 September, Monday

Time Temperature Precipitation Wind Pressure Humidity
00:00 +16°C° 0 mm 2 mps 753 mmHg 60%
01:00 +16°C° 0 mm 2 mps 754 mmHg 65%
02:00 +15°C° 0 mm 2 mps 755 mmHg 74%
03:00 +15°C° 0 mm 2 mps 755 mmHg 77%
04:00 +14°C° 0 mm 2 mps 755 mmHg 80%
05:00 +14°C° 0 mm 2 mps 756 mmHg 82%
06:00 +14°C° 0 mm 3 mps 756 mmHg 77%
07:00 +16°C° 0 mm 3 mps 756 mmHg 72%
08:00 +17°C° 0 mm 3 mps 756 mmHg 65%
09:00 +19°C° 0 mm 3 mps 756 mmHg 59%
10:00 +21°C° 0 mm 3 mps 757 mmHg 52%
11:00 +24°C° 0 mm 3 mps 757 mmHg 46%
12:00 +24°C° 0 mm 3 mps 756 mmHg 42%
13:00 +25°C° 0 mm 3 mps 756 mmHg 38%
14:00 +26°C° 0 mm 3 mps 756 mmHg 35%
15:00 +25°C° 0 mm 3 mps 755 mmHg 36%
16:00 +24°C° 0 mm 2 mps 755 mmHg 37%
17:00 +23°C° 0 mm 2 mps 755 mmHg 38%
18:00 +21°C° 0 mm 2 mps 755 mmHg 39%
19:00 +20°C° 0 mm 2 mps 755 mmHg 40%
20:00 +19°C° 0 mm 3 mps 755 mmHg 41%
21:00 +19°C° 0 mm 2 mps 754 mmHg 43%
22:00 +18°C° 0 mm 2 mps 754 mmHg 44%
23:00 +18°C° 0 mm 2 mps 754 mmHg 46%

Tomorrow, 29 September, Tuesday

Time Temperature Precipitation Wind Pressure Humidity
00:00 +17°C° 0 mm 2 mps 754 mmHg 50%
01:00 +17°C° 0 mm 2 mps 754 mmHg 53%
02:00 +17°C° 0 mm 2 mps 753 mmHg 57%
03:00 +16°C° 0 mm 2 mps 753 mmHg 64%
04:00 +16°C° 0 mm 3 mps 753 mmHg 72%
05:00 +16°C° 0 mm 3 mps 752 mmHg 79%
06:00 +17°C° 0 mm 3 mps 752 mmHg 74%
07:00 +18°C° 0 mm 4 mps 752 mmHg 69%
08:00 +19°C° 0 mm 4 mps 752 mmHg 65%
09:00 +21°C° 0 mm 5 mps 751 mmHg 60%
10:00 +22°C° 0 mm 5 mps 751 mmHg 56%
11:00 +23°C° 0 mm 5 mps 750 mmHg 51%
12:00 +24°C° 0 mm 6 mps 750 mmHg 48%
13:00 +26°C° 0 mm 7 mps 749 mmHg 45%
14:00 +28°C° 0 mm 7 mps 749 mmHg 43%
15:00 +27°C° 0.1 mm 7 mps 748 mmHg 47%
16:00 +26°C° 0.1 mm 7 mps 747 mmHg 51%
17:00 +24°C° 0.1 mm 7 mps 747 mmHg 56%
18:00 +23°C° 0.3 mm 7 mps 747 mmHg 59%
19:00 +21°C° 0.3 mm 7 mps 746 mmHg 63%
20:00 +20°C° 0.3 mm 7 mps 746 mmHg 67%
21:00 +20°C° 0.4 mm 7 mps 746 mmHg 69%
22:00 +20°C° 0.4 mm 7 mps 745 mmHg 71%
23:00 +20°C° 0.4 mm 8 mps 745 mmHg 74%

Day after tomorrow, 30 September, Wednesday

Time Temperature Precipitation Wind Pressure Humidity
00:00 +18°C° 1.8 mm 7 mps 745 mmHg 78%
01:00 +18°C° 1.8 mm 7 mps 745 mmHg 82%
02:00 +18°C° 1.8 mm 7 mps 744 mmHg 87%
03:00 +17°C° 1.7 mm 7 mps 744 mmHg 88%
04:00 +17°C° 1.7 mm 6 mps 744 mmHg 90%
05:00 +16°C° 1.7 mm 6 mps 744 mmHg 91%
06:00 +16°C° 1.1 mm 6 mps 744 mmHg 90%
07:00 +16°C° 1.1 mm 6 mps 744 mmHg 89%
08:00 +16°C° 1.1 mm 6 mps 744 mmHg 88%
09:00 +17°C° 0.4 mm 6 mps 745 mmHg 86%
10:00 +17°C° 0.4 mm 6 mps 745 mmHg 83%
11:00 +17°C° 0.4 mm 6 mps 745 mmHg 81%
12:00 +17°C° 1.5 mm 6 mps 745 mmHg 81%
13:00 +17°C° 1.5 mm 6 mps 744 mmHg 81%
14:00 +17°C° 1.5 mm 6 mps 744 mmHg 81%
15:00 +17°C° 2.8 mm 5 mps 744 mmHg 82%
16:00 +16°C° 2.8 mm 5 mps 744 mmHg 83%
17:00 +17°C° 2.8 mm 4 mps 744 mmHg 84%
18:00 +17°C° 0.8 mm 4 mps 745 mmHg 84%
19:00 +15°C° 0.8 mm 4 mps 745 mmHg 84%
20:00 +15°C° 0.8 mm 4 mps 745 mmHg 84%
21:00 +16°C° 0.4 mm 3 mps 745 mmHg 85%
22:00 +16°C° 0.4 mm 3 mps 746 mmHg 87%
23:00 +15°C° 0.4 mm 2 mps 746 mmHg 89%

1 October, Thursday

Time Temperature Precipitation Wind Pressure Humidity
00:00 +15°C° 0 mm 2 mps 746 mmHg 89%
01:00 +15°C° 0 mm 2 mps 746 mmHg 90%
02:00 +15°C° 0 mm 2 mps 746 mmHg 91%
03:00 +14°C° 0 mm 2 mps 746 mmHg 91%
04:00 +14°C° 0 mm 2 mps 746 mmHg 91%
05:00 +14°C° 0 mm 2 mps 746 mmHg 91%
06:00 +14°C° 0 mm 3 mps 746 mmHg 88%
07:00 +16°C° 0 mm 3 mps 746 mmHg 86%
08:00 +15°C° 0 mm 4 mps 746 mmHg 83%
09:00 +18°C° 0.3 mm 4 mps 746 mmHg 77%
10:00 +19°C° 0.3 mm 5 mps 747 mmHg 70%
11:00 +20°C° 0.3 mm 5 mps 747 mmHg 63%
12:00 +21°C° 0.3 mm 6 mps 747 mmHg 60%
13:00 +21°C° 0.3 mm 6 mps 747 mmHg 57%
14:00 +22°C° 0.3 mm 6 mps 747 mmHg 54%
15:00 +21°C° 0.2 mm 5 mps 747 mmHg 57%
16:00 +20°C° 0.2 mm 5 mps 747 mmHg 59%
17:00 +20°C° 0.2 mm 4 mps 747 mmHg 61%
18:00 +19°C° 0.1 mm 4 mps 747 mmHg 66%
19:00 +18°C° 0.1 mm 4 mps 748 mmHg 70%
20:00 +17°C° 0.1 mm 3 mps 748 mmHg 74%
21:00 +16°C° 0 mm 3 mps 748 mmHg 75%
22:00 +16°C° 0 mm 3 mps 748 mmHg 76%
23:00 +16°C° 0 mm 2 mps 748 mmHg 77%

2 October, Friday

Time Temperature Precipitation Wind Pressure Humidity
00:00 +15°C° 0 mm 2 mps 748 mmHg 79%
01:00 +15°C° 0 mm 2 mps 748 mmHg 81%
02:00 +15°C° 0 mm 2 mps 748 mmHg 83%
03:00 +15°C° 0.1 mm 2 mps 749 mmHg 85%
04:00 +15°C° 0.1 mm 2 mps 749 mmHg 88%
05:00 +14°C° 0.1 mm 2 mps 749 mmHg 90%
06:00 +14°C° 0.1 mm 3 mps 749 mmHg 86%
07:00 +16°C° 0.1 mm 3 mps 749 mmHg 83%
08:00 +17°C° 0.1 mm 3 mps 750 mmHg 79%
09:00 +18°C° 0.3 mm 3 mps 750 mmHg 72%
10:00 +19°C° 0.3 mm 3 mps 750 mmHg 65%
11:00 +20°C° 0.3 mm 3 mps 750 mmHg 58%
12:00 +20°C° 0.2 mm 3 mps 750 mmHg 58%
13:00 +20°C° 0.2 mm 3 mps 750 mmHg 57%
14:00 +21°C° 0.2 mm 3 mps 750 mmHg 57%
15:00 +20°C° 0.5 mm 3 mps 750 mmHg 61%
16:00 +19°C° 0.5 mm 3 mps 750 mmHg 65%
17:00 +18°C° 0.5 mm 2 mps 750 mmHg 69%
18:00 +18°C° 0.1 mm 2 mps 750 mmHg 72%
19:00 +17°C° 0.1 mm 2 mps 750 mmHg 75%
20:00 +17°C° 0.1 mm 2 mps 751 mmHg 79%
21:00 +16°C° 0.1 mm 2 mps 751 mmHg 80%
22:00 +16°C° 0.1 mm 2 mps 751 mmHg 82%
23:00 +16°C° 0.1 mm 1 mps 751 mmHg 84%

3 October, Saturday

Time Temperature Precipitation Wind Pressure Humidity
00:00 +16°C° 0 mm 1 mps 751 mmHg 84%
01:00 +15°C° 0 mm 1 mps 751 mmHg 84%
02:00 +15°C° 0 mm 1 mps 751 mmHg 84%
03:00 +15°C° 0 mm 1 mps 751 mmHg 86%
04:00 +15°C° 0 mm 1 mps 752 mmHg 87%
05:00 +14°C° 0 mm 1 mps 752 mmHg 88%
06:00 +15°C° 0 mm 1 mps 752 mmHg 85%
07:00 +16°C° 0 mm 1 mps 752 mmHg 81%
08:00 +18°C° 0 mm 1 mps 752 mmHg 78%
09:00 +19°C° 0.2 mm 1 mps 752 mmHg 71%
10:00 +20°C° 0.2 mm 1 mps 752 mmHg 65%
11:00 +21°C° 0.2 mm 1 mps 752 mmHg 58%
12:00 +22°C° 0.9 mm 1 mps 752 mmHg 55%
13:00 +22°C° 0.9 mm 1 mps 752 mmHg 52%
14:00 +23°C° 0.9 mm 1 mps 752 mmHg 49%
15:00 +22°C° 0.3 mm 1 mps 752 mmHg 53%
16:00 +22°C° 0.3 mm 1 mps 752 mmHg 57%
17:00 +21°C° 0.3 mm 1 mps 752 mmHg 60%
18:00 +20°C° 0.1 mm 1 mps 752 mmHg 63%
19:00 +20°C° 0.1 mm 1 mps 752 mmHg 65%
20:00 +17°C° 0.1 mm 0 mps 753 mmHg 68%
21:00 +16°C° 0 mm 0 mps 753 mmHg 69%
22:00 +16°C° 0 mm 0 mps 753 mmHg 71%
23:00 +15°C° 0 mm 0 mps 753 mmHg 73%
Show more